• Join FlightAware (Why Join?)
  • Login
  • US Flag GB Flag 
18:59 EDT


 

Airport Tracker/Info


-or-


 

Live Flight TrackerFlight Track Log ✈ SWA3943 ✈ 10-Apr-2013 ✈ KMCI - KDAL

Flight Track Log - Related Links

Times and Time Zones

All times are in EDT time to prevent confusion due to time zone crossing. See the SWA3943 flight status page for this flight to view local times or setup timezone preferences in your user account.

Time Position Orientation Groundspeed Altitude Reporting Facility
EDT Latitude Longitude Course Direction KTS MPH feet Rate Location/Type
15:06 39.3667 -94.7167 360° North 203 234 3,500  Level Kansas City TRACON
15:07 39.3981 -94.7531 318° Northwest 254 292 4,900 3,000 Climbing Kansas City Center
15:08 39.3969 -94.8464 269° West 274 315 8,500 3,660 Climbing Kansas City Center
15:09 39.3772 -94.9342 254° West 263 303 12,500 3,660 Climbing Kansas City Center
15:10 39.3481 -95.0392 250° West 281 323 16,000 3,600 Climbing Kansas City Center
15:11 39.2972 -95.1228 232° Southwest 275 316 19,900 2,820 Climbing Kansas City Center
15:12 39.2497 -95.2003 232° Southwest 276 318 21,900 1,980 Climbing Kansas City Center
15:13 39.1950 -95.2906 232° Southwest 313 360 24,000 2,220 Climbing Kansas City Center
15:14 39.1333 -95.3914 232° Southwest 333 383 26,500 2,220 Climbing Kansas City Center
15:15 39.0739 -95.4897 232° Southwest 336 387 28,700 1,800 Climbing Kansas City Center
15:16 39.0172 -95.5814 232° Southwest 341 392 30,300 1,380 Climbing Kansas City Center
15:17 38.9567 -95.6778 231° Southwest 359 413 31,600 1,320 Climbing Kansas City Center
15:18 38.8869 -95.7933 232° Southwest 367 422 33,100 1,320 Climbing Kansas City Center
15:19 38.8233 -95.8933 231° Southwest 376 433 34,400 1,380 Climbing Kansas City Center
15:20 38.7517 -96.0092 232° Southwest 371 427 36,000 780 Climbing Kansas City Center
15:21 38.6942 -96.1086 233° Southwest 364 419 36,000  Level Kansas City Center
15:22 38.6222 -96.2175 230° Southwest 357 411 36,000  Level Kansas City Center
15:23 38.5628 -96.3119 231° Southwest 356 410 36,000  Level Kansas City Center
15:24 38.5042 -96.4061 232° Southwest 354 407 36,000  Level Kansas City Center
15:25 38.4422 -96.5031 231° Southwest 356 410 36,000  Level Kansas City Center
15:26 38.3731 -96.5886 224° Southwest 344 396 36,000 780 Level Kansas City Center
15:27 38.2631 -96.6289 196° South 340 391 37,600 960 Climbing Kansas City Center
15:28 38.1728 -96.6600 195° South 336 387 38,000 180 Climbing Kansas City Center
15:29 38.0808 -96.6922 195° South 341 392 38,000  Level Kansas City Center
15:31 37.9883 -96.7244 195° South 345 397 38,000  Level Kansas City Center
15:32 37.8942 -96.7575 195° South 349 402 38,000  Level Kansas City Center
15:33 37.8003 -96.7897 195° South 347 399 38,000  Level Kansas City Center
15:34 37.7075 -96.8214 195° South 344 396 38,000  Level Kansas City Center
15:35 37.6142 -96.8536 195° South 345 397 38,000  Level Kansas City Center
15:36 37.5028 -96.8917 195° South 344 396 38,000  Level Kansas City Center
15:37 37.4089 -96.9233 195° South 346 398 38,000  Level Kansas City Center
15:38 37.3147 -96.9567 196° South 348 400 38,000  Level Kansas City Center
15:39 37.2214 -96.9881 195° South 347 399 38,000  Level Kansas City Center
15:40 37.1275 -97.0206 195° South 348 400 38,000  Level Kansas City Center
15:41 37.0328 -97.0522 195° South 350 403 38,000  Level Kansas City Center
15:42 36.9383 -97.0853 196° South 350 403 38,000  Level Kansas City Center
15:43 36.8350 -97.1161 193° South 345 397 38,000  Level Kansas City Center
15:44 36.7408 -97.1492 196° South 347 399 38,000  Level Kansas City Center
15:45 36.6461 -97.1800 195° South 351 404 38,000  Level Kansas City Center
15:46 36.5339 -97.2208 196° South 351 404 38,000  Level Kansas City Center
15:47 36.4400 -97.2528 195° South 350 403 38,000  Level Kansas City Center
15:48 36.3447 -97.2844 195° South 353 406 38,000  Level Kansas City Center
15:49 36.2481 -97.3167 195° South 357 411 38,000  Level Kansas City Center
15:50 36.1517 -97.3483 195° South 359 413 38,000  Level Kansas City Center
15:51 36.0544 -97.3814 195° South 362 417 38,000  Level Kansas City Center
15:52 35.9364 -97.4214 195° South 365 420 38,000  Level Kansas City Center
15:53 35.8369 -97.4536 195° South 368 423 38,000  Level Kansas City Center
15:54 35.7378 -97.4878 196° South 363 418 38,000  Level Fort Worth Center
15:55 35.6378 -97.5208 195° South 373 429 38,000  Level Fort Worth Center
15:56 35.5583 -97.5489 196° South 373 429 38,000  Level Fort Worth Center
15:57 35.4333 -97.5919 196° South 378 435 38,000  Level Fort Worth Center
15:58 35.3289 -97.6144 190° South 378 435 38,000  Level Fort Worth Center
15:59 35.2183 -97.6067 177° South 384 442 38,000  Level Fort Worth Center
16:00 35.1100 -97.5936 174° South 389 448 38,000  Level Fort Worth Center
16:01 34.9994 -97.5858 177° South 389 448 38,000  Level Fort Worth Center
16:02 34.8908 -97.5781 177° South 394 453 38,000 -840 Level Fort Worth Center
16:03 34.7700 -97.5678 176° South 394 453 36,400 -2,400 Descending Fort Worth Center
16:04 34.6636 -97.5600 177° South 394 453 33,200 -3,000 Descending Fort Worth Center
16:05 34.5592 -97.5522 176° South 394 453 30,500 -2,400 Descending Fort Worth Center
16:06 34.4569 -97.5444 176° South 382 440 28,400 -2,400 Descending Fort Worth Center
16:07 34.3569 -97.5367 176° South 372 428 25,800 -2,220 Descending Fort Worth Center
16:08 34.2589 -97.5292 176° South 362 417 24,000 -900 Descending Fort Worth Center
16:09 34.1669 -97.5239 177° South 351 404 24,000  Level Fort Worth Center
16:10 34.0753 -97.5139 175° South 346 398 24,000 -240 Level Fort Worth Center
16:11 33.9897 -97.5061 176° South 341 392 23,600 -1,380 Descending Fort Worth Center
16:12 33.9000 -97.5011 177° South 335 386 21,300 -2,340 Descending Fort Worth Center
16:13 33.8122 -97.4933 176° South 328 377 19,000 -2,220 Descending Fort Worth Center
16:14 33.7308 -97.4883 177° South 311 358 16,900 -2,400 Descending Fort Worth Center
16:15 33.6475 -97.4808 176° South 299 344 14,300 -2,700 Descending Fort Worth Center
16:16 33.5556 -97.4758 177° South 313 360 11,600 -2,160 Descending Fort Worth Center
16:17 33.4575 -97.4658 175° South 331 381 10,000 -1,200 Descending Fort Worth Center
16:18 33.3969 -97.4136 144° Southeast 291 335 9,300 -1,080 Descending Fort Worth Center
16:19 33.3614 -97.3239 115° Southeast 277 319 7,900 -1,500 Descending Fort Worth Center
16:20 33.3633 -97.2344 88° East 279 321 6,300 -1,560 Descending Fort Worth Center
16:21 33.3550 -97.1300 95° East 302 348 4,800 -1,200 Descending Fort Worth Center
16:22 33.3442 -97.0281 97° East 302 348 4,000 -420 Descending Fort Worth Center
16:23 33.3106 -96.9536 118° Southeast 278 320 4,000  Level Fort Worth Center
16:24 33.2581 -96.8744 128° Southeast 278 320 4,000  Level Fort Worth Center
16:25 33.2181 -96.8050 125° Southeast 272 313 4,000  Level Fort Worth Center
16:26 33.1428 -96.7558 151° Southeast 272 313 4,000  Level Fort Worth Center
16:27 33.0778 -96.7192 155° Southeast 285 328 4,000  Level Fort Worth Center
16:28 33.0333 -96.7000 160° South 285 328 4,000  Level Dallas / Fort Worth TRACON
16:29 32.9667 -96.6500 148° Southeast 245 282 4,000  Level Dallas / Fort Worth TRACON
16:30 32.9167 -96.6167 151° Southeast 250 288 4,000 -240 Level Dallas / Fort Worth TRACON
16:30 32.8789 -96.6094 171° South 250 288 3,700 -540 Descending Fort Worth Center
16:32 32.7833 -96.6167 184° South 241 277 3,000 -480 Descending Dallas / Fort Worth TRACON